Time,TemperatureF,DewpointF,PressureIn,WindDirection,WindDirectionDegrees,WindSpeedMPH,WindSpeedGustMPH,Humidity,HourlyPrecipIn,Conditions,Clouds,dailyrainin,SoftwareType,DateUTC
2013-01-08 00:00:00,58.0,55.4,30.14,North,0,0.0,0.0,91,0.00,,---,0.00,VWS V14.01,2013-01-08 05:00:00,
2013-01-08 00:02:00,58.0,55.4,30.14,North,0,0.0,0.0,91,0.00,,---,0.00,VWS V14.01,2013-01-08 05:02:00,
2013-01-08 00:03:00,58.1,55.5,30.14,North,0,0.0,0.0,91,0.00,,---,0.00,VWS V14.01,2013-01-08 05:03:00,
2013-01-08 00:08:00,58.1,55.2,30.14,North,0,0.0,0.0,90,0.00,,---,0.00,VWS V14.01,2013-01-08 05:08:00,
2013-01-08 00:13:00,58.0,55.4,30.14,North,0,0.0,0.0,91,0.00,,---,0.00,VWS V14.01,2013-01-08 05:13:00,
2013-01-08 00:18:00,58.0,55.4,30.14,North,0,0.0,0.0,91,0.00,,---,0.00,VWS V14.01,2013-01-08 05:18:00,
2013-01-08 00:23:00,57.8,55.2,30.14,North,0,0.0,0.0,91,0.00,,---,0.00,VWS V14.01,2013-01-08 05:23:00,
2013-01-08 00:28:00,57.8,55.2,30.14,North,0,0.0,0.0,91,0.00,,---,0.00,VWS V14.01,2013-01-08 05:28:00,
2013-01-08 00:30:00,57.8,55.2,30.14,North,0,0.0,0.0,91,0.00,,---,0.00,VWS V14.01,2013-01-08 05:30:00,
2013-01-08 00:33:00,57.8,55.2,30.14,North,0,0.0,0.0,91,0.00,,---,0.00,VWS V14.01,2013-01-08 05:33:00,
2013-01-08 00:38:00,57.8,55.5,30.14,North,0,0.0,0.0,92,0.00,,---,0.00,VWS V14.01,2013-01-08 05:38:00,
2013-01-08 00:43:00,57.6,55.3,30.14,North,0,0.0,0.0,92,0.00,,---,0.00,VWS V14.01,2013-01-08 05:43:00,
2013-01-08 00:48:00,57.6,55.3,30.14,North,0,0.0,0.0,92,0.00,,---,0.00,VWS V14.01,2013-01-08 05:48:00,
2013-01-08 00:53:00,57.6,55.6,30.14,North,0,0.0,0.0,93,0.00,,---,0.00,VWS V14.01,2013-01-08 05:53:00,
2013-01-08 00:58:00,57.8,55.8,30.14,North,0,0.0,0.0,93,0.00,,---,0.00,VWS V14.01,2013-01-08 05:58:00,
2013-01-08 01:00:00,57.8,55.8,30.13,North,0,0.0,0.0,93,0.00,,---,0.00,VWS V14.01,2013-01-08 06:00:00,
2013-01-08 01:03:00,57.8,55.8,30.13,North,0,0.0,0.0,93,0.00,,---,0.00,VWS V14.01,2013-01-08 06:03:00,
2013-01-08 01:08:00,57.8,55.8,30.13,North,0,0.0,0.0,93,0.00,,---,0.00,VWS V14.01,2013-01-08 06:08:00,
2013-01-08 01:13:00,58.0,56.0,30.13,North,0,0.0,0.0,93,0.00,,---,0.00,VWS V14.01,2013-01-08 06:13:00,
2013-01-08 01:18:00,58.0,56.0,30.14,North,0,0.0,0.0,93,0.00,,---,0.00,VWS V14.01,2013-01-08 06:18:00,
2013-01-08 01:23:00,58.0,56.0,30.14,North,0,0.0,0.0,93,0.00,,---,0.00,VWS V14.01,2013-01-08 06:23:00,
2013-01-08 01:28:00,58.1,56.1,30.14,North,0,0.0,1.0,93,0.00,,---,0.00,VWS V14.01,2013-01-08 06:28:00,
2013-01-08 01:30:00,58.1,56.1,30.13,North,0,0.0,1.0,93,0.00,,---,0.00,VWS V14.01,2013-01-08 06:30:00,
2013-01-08 01:33:00,58.3,56.3,30.13,North,0,0.0,0.0,93,0.00,,---,0.00,VWS V14.01,2013-01-08 06:33:00,
2013-01-08 01:38:00,58.3,56.3,30.13,North,0,0.0,0.0,93,0.00,,---,0.00,VWS V14.01,2013-01-08 06:38:00,
2013-01-08 01:43:00,58.3,56.3,30.13,North,0,0.0,0.0,93,0.00,,---,0.00,VWS V14.01,2013-01-08 06:43:00,
2013-01-08 01:48:00,58.4,56.4,30.13,North,0,0.0,0.0,93,0.00,,---,0.00,VWS V14.01,2013-01-08 06:48:00,
2013-01-08 01:53:00,58.4,56.4,30.13,North,0,0.0,0.0,93,0.00,,---,0.00,VWS V14.01,2013-01-08 06:53:00,
2013-01-08 01:58:00,58.4,56.4,30.13,North,0,0.0,0.0,93,0.00,,---,0.00,VWS V14.01,2013-01-08 06:58:00,
2013-01-08 02:00:00,58.4,56.4,30.13,North,0,0.0,0.0,93,0.00,,---,0.00,VWS V14.01,2013-01-08 07:00:00,
2013-01-08 02:03:00,58.4,56.4,30.13,North,0,0.0,0.0,93,0.00,,---,0.00,VWS V14.01,2013-01-08 07:03:00,
2013-01-08 02:08:00,58.4,56.4,30.13,North,0,0.0,0.0,93,0.00,,---,0.00,VWS V14.01,2013-01-08 07:08:00,
2013-01-08 02:13:00,58.4,56.4,30.13,North,0,0.0,0.0,93,0.00,,---,0.00,VWS V14.01,2013-01-08 07:13:00,
2013-01-08 02:18:00,58.6,56.6,30.13,North,0,0.0,0.0,93,0.00,,---,0.00,VWS V14.01,2013-01-08 07:18:00,
2013-01-08 02:23:00,58.6,56.6,30.13,North,0,0.0,1.0,93,0.00,,---,0.00,VWS V14.01,2013-01-08 07:23:00,
2013-01-08 02:28:00,58.6,56.6,30.13,North,0,0.0,1.0,93,0.00,,---,0.00,VWS V14.01,2013-01-08 07:28:00,
2013-01-08 02:30:00,58.6,56.6,30.13,North,0,0.0,1.0,93,0.00,,---,0.00,VWS V14.01,2013-01-08 07:30:00,
2013-01-08 02:33:00,58.6,56.6,30.13,North,0,0.0,0.0,93,0.00,,---,0.00,VWS V14.01,2013-01-08 07:33:00,
2013-01-08 02:38:00,58.4,56.4,30.13,North,0,0.0,0.0,93,0.00,,---,0.00,VWS V14.01,2013-01-08 07:38:00,
2013-01-08 02:43:00,58.4,56.4,30.13,North,0,0.0,0.0,93,0.00,,---,0.00,VWS V14.01,2013-01-08 07:43:00,
2013-01-08 02:48:00,58.4,56.4,30.13,North,0,0.0,0.0,93,0.00,,---,0.00,VWS V14.01,2013-01-08 07:48:00,
2013-01-08 02:53:00,58.4,56.4,30.13,North,0,0.0,0.0,93,0.00,,---,0.00,VWS V14.01,2013-01-08 07:53:00,
2013-01-08 02:58:00,58.4,56.4,30.13,North,0,0.0,0.0,93,0.00,,---,0.00,VWS V14.01,2013-01-08 07:58:00,
2013-01-08 03:00:00,58.4,56.4,30.12,North,0,0.0,0.0,93,0.00,,---,0.00,VWS V14.01,2013-01-08 08:00:00,
2013-01-08 03:03:00,58.4,56.4,30.12,North,0,0.0,0.0,93,0.00,,---,0.00,VWS V14.01,2013-01-08 08:03:00,
2013-01-08 03:08:00,58.3,56.3,30.12,North,0,0.0,0.0,93,0.00,,---,0.00,VWS V14.01,2013-01-08 08:08:00,
2013-01-08 03:13:00,58.3,56.3,30.12,North,0,0.0,0.0,93,0.00,,---,0.00,VWS V14.01,2013-01-08 08:13:00,
2013-01-08 03:18:00,58.3,56.3,30.13,North,0,0.0,0.0,93,0.00,,---,0.00,VWS V14.01,2013-01-08 08:18:00,
2013-01-08 03:23:00,58.4,56.7,30.13,North,0,0.0,0.0,94,0.00,,---,0.00,VWS V14.01,2013-01-08 08:23:00,
2013-01-08 03:28:00,58.4,56.7,30.13,North,0,0.0,0.0,94,0.00,,---,0.00,VWS V14.01,2013-01-08 08:28:00,
2013-01-08 03:30:00,58.4,56.7,30.13,North,0,0.0,0.0,94,0.00,,---,0.00,VWS V14.01,2013-01-08 08:30:00,
2013-01-08 03:33:00,58.4,56.7,30.13,North,0,0.0,0.0,94,0.00,,---,0.00,VWS V14.01,2013-01-08 08:33:00,
2013-01-08 03:38:00,58.4,56.7,30.13,North,0,0.0,0.0,94,0.00,,---,0.00,VWS V14.01,2013-01-08 08:38:00,
2013-01-08 03:43:00,58.6,56.9,30.13,North,0,0.0,1.0,94,0.00,,---,0.00,VWS V14.01,2013-01-08 08:43:00,
2013-01-08 03:48:00,58.6,56.9,30.12,North,0,0.0,1.0,94,0.00,,---,0.00,VWS V14.01,2013-01-08 08:48:00,
2013-01-08 03:53:00,58.6,56.9,30.12,North,0,0.0,1.0,94,0.00,,---,0.00,VWS V14.01,2013-01-08 08:53:00,
2013-01-08 03:58:00,58.7,57.0,30.12,North,0,0.0,1.0,94,0.00,,---,0.00,VWS V14.01,2013-01-08 08:58:00,
2013-01-08 04:00:00,58.7,57.0,30.11,North,0,0.0,1.0,94,0.00,,---,0.00,VWS V14.01,2013-01-08 09:00:00,
2013-01-08 04:03:00,58.6,56.9,30.11,North,0,0.0,0.0,94,0.00,,---,0.00,VWS V14.01,2013-01-08 09:03:00,
2013-01-08 04:08:00,58.6,56.9,30.11,North,0,0.0,0.0,94,0.00,,---,0.00,VWS V14.01,2013-01-08 09:08:00,
2013-01-08 04:13:00,58.6,56.9,30.11,North,0,0.0,0.0,94,0.00,,---,0.00,VWS V14.01,2013-01-08 09:13:00,
2013-01-08 04:18:00,58.6,56.9,30.12,WNW,285,0.0,2.0,94,0.00,,---,0.00,VWS V14.01,2013-01-08 09:18:00,
2013-01-08 04:23:00,58.6,56.9,30.12,WNW,285,0.0,2.0,94,0.00,,---,0.00,VWS V14.01,2013-01-08 09:23:00,
2013-01-08 04:28:00,58.4,56.7,30.12,WNW,285,0.0,2.0,94,0.00,,---,0.00,VWS V14.01,2013-01-08 09:28:00,
2013-01-08 04:30:00,58.4,56.7,30.12,WNW,282,0.0,2.0,94,0.00,,---,0.00,VWS V14.01,2013-01-08 09:30:00,
2013-01-08 04:33:00,58.6,56.9,30.12,WNW,282,0.0,0.0,94,0.00,,---,0.00,VWS V14.01,2013-01-08 09:33:00,
2013-01-08 04:38:00,58.6,56.9,30.12,WNW,282,0.0,0.0,94,0.00,,---,0.00,VWS V14.01,2013-01-08 09:38:00,
2013-01-08 04:43:00,58.6,56.9,30.12,West,267,0.0,0.0,94,0.00,,---,0.00,VWS V14.01,2013-01-08 09:43:00,
2013-01-08 04:48:00,58.6,56.9,30.11,West,267,0.0,1.0,94,0.00,,---,0.00,VWS V14.01,2013-01-08 09:48:00,
2013-01-08 04:53:00,58.6,56.9,30.11,NNW,329,0.0,1.0,94,0.00,,---,0.00,VWS V14.01,2013-01-08 09:53:00,
2013-01-08 04:58:00,58.6,56.9,30.11,NNW,329,0.0,1.0,94,0.00,,---,0.00,VWS V14.01,2013-01-08 09:58:00,
2013-01-08 05:00:00,58.6,56.9,30.11,NNW,329,0.0,1.0,94,0.00,,---,0.00,VWS V14.01,2013-01-08 10:00:00,
2013-01-08 05:03:00,58.6,56.9,30.11,NNW,329,0.0,0.0,94,0.00,,---,0.00,VWS V14.01,2013-01-08 10:03:00,
2013-01-08 05:08:00,58.6,56.9,30.11,NNW,329,0.0,0.0,94,0.00,,---,0.00,VWS V14.01,2013-01-08 10:08:00,
2013-01-08 05:13:00,58.6,56.9,30.11,NNW,329,0.0,0.0,94,0.00,,---,0.00,VWS V14.01,2013-01-08 10:13:00,
2013-01-08 05:18:00,58.6,56.9,30.11,NNW,329,0.0,0.0,94,0.00,,---,0.00,VWS V14.01,2013-01-08 10:18:00,
2013-01-08 05:23:00,58.7,57.0,30.11,NNW,329,0.0,0.0,94,0.00,,---,0.00,VWS V14.01,2013-01-08 10:23:00,
2013-01-08 05:28:00,58.7,57.0,30.11,WNW,301,0.0,0.0,94,0.00,,---,0.00,VWS V14.01,2013-01-08 10:28:00,
2013-01-08 05:30:00,58.7,57.0,30.12,WNW,301,0.0,0.0,94,0.00,,---,0.00,VWS V14.01,2013-01-08 10:30:00,
2013-01-08 05:33:00,58.7,57.0,30.12,WNW,301,0.0,0.0,94,0.00,,---,0.00,VWS V14.01,2013-01-08 10:33:00,
2013-01-08 05:38:00,58.7,57.0,30.12,WNW,301,0.0,0.0,94,0.00,,---,0.00,VWS V14.01,2013-01-08 10:38:00,
2013-01-08 05:43:00,58.7,57.0,30.12,WNW,301,0.0,0.0,94,0.00,,---,0.00,VWS V14.01,2013-01-08 10:43:00,
2013-01-08 05:48:00,58.7,57.0,30.13,WNW,301,0.0,0.0,94,0.00,,---,0.00,VWS V14.01,2013-01-08 10:48:00,
2013-01-08 05:53:00,58.7,57.0,30.13,WNW,301,0.0,0.0,94,0.00,,---,0.00,VWS V14.01,2013-01-08 10:53:00,
2013-01-08 05:58:00,58.7,57.0,30.13,WNW,301,0.0,0.0,94,0.00,,---,0.00,VWS V14.01,2013-01-08 10:58:00,
2013-01-08 06:00:00,58.7,57.0,30.13,WNW,301,0.0,1.0,94,0.00,,---,0.00,VWS V14.01,2013-01-08 11:00:00,
2013-01-08 06:03:00,58.7,57.0,30.13,WNW,301,0.0,0.0,94,0.00,,---,0.00,VWS V14.01,2013-01-08 11:03:00,
2013-01-08 06:08:00,58.7,57.0,30.13,WNW,301,0.0,0.0,94,0.00,,---,0.00,VWS V14.01,2013-01-08 11:08:00,
2013-01-08 06:13:00,58.7,57.0,30.13,WNW,301,0.0,0.0,94,0.00,,---,0.00,VWS V14.01,2013-01-08 11:13:00,
2013-01-08 06:18:00,58.7,57.0,30.13,WNW,301,0.0,0.0,94,0.00,,---,0.00,VWS V14.01,2013-01-08 11:18:00,
2013-01-08 06:23:00,58.7,57.0,30.13,WNW,301,0.0,0.0,94,0.00,,---,0.00,VWS V14.01,2013-01-08 11:23:00,
2013-01-08 06:28:00,58.6,56.9,30.13,WNW,301,0.0,0.0,94,0.00,,---,0.00,VWS V14.01,2013-01-08 11:28:00,
2013-01-08 06:30:00,58.6,56.9,30.14,WNW,301,0.0,0.0,94,0.00,,---,0.00,VWS V14.01,2013-01-08 11:30:00,
2013-01-08 06:33:00,58.6,56.9,30.14,WNW,301,0.0,0.0,94,0.00,,---,0.00,VWS V14.01,2013-01-08 11:33:00,
2013-01-08 06:38:00,58.6,56.9,30.14,WNW,301,0.0,0.0,94,0.00,,---,0.00,VWS V14.01,2013-01-08 11:38:00,
2013-01-08 06:43:00,58.6,56.9,30.14,WNW,301,0.0,0.0,94,0.00,,---,0.00,VWS V14.01,2013-01-08 11:43:00,
2013-01-08 06:48:00,58.6,56.9,30.14,WNW,301,0.0,0.0,94,0.00,,---,0.00,VWS V14.01,2013-01-08 11:48:00,
2013-01-08 06:53:00,58.6,56.9,30.14,WNW,301,0.0,0.0,94,0.00,,---,0.00,VWS V14.01,2013-01-08 11:53:00,
2013-01-08 06:58:00,58.6,56.9,30.14,WNW,301,0.0,0.0,94,0.00,,---,0.00,VWS V14.01,2013-01-08 11:58:00,
2013-01-08 07:00:00,58.7,57.0,30.15,WNW,301,0.0,0.0,94,0.00,,---,0.00,VWS V14.01,2013-01-08 12:00:00,
2013-01-08 07:03:00,58.7,57.0,30.15,WNW,301,0.0,0.0,94,0.00,,---,0.00,VWS V14.01,2013-01-08 12:03:00,
2013-01-08 07:08:00,58.7,57.0,30.15,WNW,301,0.0,0.0,94,0.00,,---,0.00,VWS V14.01,2013-01-08 12:08:00,
2013-01-08 07:13:00,58.7,57.0,30.15,WNW,301,0.0,0.0,94,0.00,,---,0.00,VWS V14.01,2013-01-08 12:13:00,
2013-01-08 07:18:00,58.7,57.0,30.16,WNW,301,0.0,0.0,94,0.00,,---,0.00,VWS V14.01,2013-01-08 12:18:00,
2013-01-08 07:23:00,58.7,57.0,30.16,WNW,301,0.0,0.0,94,0.00,,---,0.00,VWS V14.01,2013-01-08 12:23:00,
2013-01-08 07:28:00,58.9,57.2,30.16,WNW,301,0.0,0.0,94,0.00,,---,0.00,VWS V14.01,2013-01-08 12:28:00,
2013-01-08 07:30:00,58.9,57.2,30.16,WNW,301,0.0,0.0,94,0.00,,---,0.00,VWS V14.01,2013-01-08 12:30:00,
2013-01-08 07:33:00,58.9,57.2,30.16,WNW,301,0.0,0.0,94,0.00,,---,0.00,VWS V14.01,2013-01-08 12:33:00,
2013-01-08 07:38:00,58.9,57.2,30.16,WNW,301,0.0,0.0,94,0.00,,---,0.00,VWS V14.01,2013-01-08 12:38:00,
2013-01-08 07:43:00,58.9,57.2,30.16,WNW,301,0.0,0.0,94,0.00,,---,0.00,VWS V14.01,2013-01-08 12:43:00,
2013-01-08 07:48:00,59.0,57.3,30.17,WNW,301,0.0,0.0,94,0.00,,---,0.00,VWS V14.01,2013-01-08 12:48:00,
2013-01-08 07:53:00,59.0,57.3,30.17,WNW,301,0.0,0.0,94,0.00,,---,0.00,VWS V14.01,2013-01-08 12:53:00,
2013-01-08 07:58:00,59.0,57.3,30.17,WNW,301,0.0,0.0,94,0.00,,---,0.00,VWS V14.01,2013-01-08 12:58:00,
2013-01-08 08:00:00,59.0,57.3,30.17,WNW,301,0.0,0.0,94,0.00,,---,0.00,VWS V14.01,2013-01-08 13:00:00,
2013-01-08 08:03:00,59.0,57.3,30.17,WNW,301,0.0,0.0,94,0.00,,---,0.00,VWS V14.01,2013-01-08 13:03:00,
2013-01-08 08:08:00,59.2,57.5,30.17,WNW,301,0.0,0.0,94,0.00,,---,0.00,VWS V14.01,2013-01-08 13:08:00,
2013-01-08 08:13:00,59.2,57.5,30.17,WNW,301,0.0,0.0,94,0.00,,---,0.00,VWS V14.01,2013-01-08 13:13:00,
2013-01-08 08:18:00,59.3,57.6,30.18,WNW,301,0.0,0.0,94,0.00,,---,0.00,VWS V14.01,2013-01-08 13:18:00,
2013-01-08 08:23:00,59.3,57.6,30.18,WNW,301,0.0,0.0,94,0.00,,---,0.00,VWS V14.01,2013-01-08 13:23:00,
2013-01-08 08:28:00,59.5,57.8,30.18,WNW,301,0.0,0.0,94,0.00,,---,0.00,VWS V14.01,2013-01-08 13:28:00,
2013-01-08 08:30:00,59.5,57.8,30.18,WNW,301,0.0,0.0,94,0.00,,---,0.00,VWS V14.01,2013-01-08 13:30:00,
2013-01-08 08:33:00,59.5,57.8,30.18,WNW,301,0.0,0.0,94,0.00,,---,0.00,VWS V14.01,2013-01-08 13:33:00,
2013-01-08 08:38:00,59.6,57.9,30.18,WNW,301,0.0,1.0,94,0.00,,---,0.00,VWS V14.01,2013-01-08 13:38:00,
2013-01-08 08:43:00,59.8,58.1,30.18,WNW,301,0.0,1.0,94,0.00,,---,0.00,VWS V14.01,2013-01-08 13:43:00,
2013-01-08 08:48:00,59.9,58.2,30.18,North,3,0.0,1.0,94,0.00,,---,0.00,VWS V14.01,2013-01-08 13:48:00,
2013-01-08 08:53:00,60.1,58.4,30.18,North,3,0.0,1.0,94,0.00,,---,0.00,VWS V14.01,2013-01-08 13:53:00,
2013-01-08 08:58:00,60.2,58.5,30.18,North,3,0.0,1.0,94,0.00,,---,0.00,VWS V14.01,2013-01-08 13:58:00,
2013-01-08 09:00:00,60.4,58.7,30.19,North,3,0.0,1.0,94,0.00,,---,0.00,VWS V14.01,2013-01-08 14:00:00,
2013-01-08 09:03:00,60.5,58.8,30.19,North,3,0.0,0.0,94,0.00,,---,0.00,VWS V14.01,2013-01-08 14:03:00,
2013-01-08 09:08:00,60.5,58.8,30.19,North,3,0.0,0.0,94,0.00,,---,0.00,VWS V14.01,2013-01-08 14:08:00,
2013-01-08 09:13:00,60.7,59.0,30.19,North,3,0.0,0.0,94,0.00,,---,0.00,VWS V14.01,2013-01-08 14:13:00,
2013-01-08 09:18:00,60.9,58.9,30.20,North,3,0.0,0.0,93,0.00,,---,0.00,VWS V14.01,2013-01-08 14:18:00,
2013-01-08 09:23:00,61.2,59.2,30.20,North,3,0.0,0.0,93,0.00,,---,0.00,VWS V14.01,2013-01-08 14:23:00,
2013-01-08 09:28:00,61.3,59.3,30.20,North,0,0.0,2.0,93,0.00,,---,0.00,VWS V14.01,2013-01-08 14:28:00,
2013-01-08 09:30:00,61.3,59.3,30.20,North,0,0.0,2.0,93,0.00,,---,0.00,VWS V14.01,2013-01-08 14:30:00,
2013-01-08 09:33:00,61.6,59.6,30.20,North,0,0.0,0.0,93,0.00,,---,0.00,VWS V14.01,2013-01-08 14:33:00,
2013-01-08 09:38:00,62.0,60.0,30.20,North,0,0.0,1.0,93,0.00,,---,0.00,VWS V14.01,2013-01-08 14:38:00,
2013-01-08 09:43:00,62.3,60.2,30.20,North,0,0.0,1.0,93,0.00,,---,0.00,VWS V14.01,2013-01-08 14:43:00,
2013-01-08 09:48:00,62.6,60.2,30.20,North,0,0.0,1.0,92,0.00,,---,0.00,VWS V14.01,2013-01-08 14:48:00,
2013-01-08 09:53:00,62.9,60.5,30.20,North,0,0.0,1.0,92,0.00,,---,0.00,VWS V14.01,2013-01-08 14:53:00,
2013-01-08 09:58:00,63.2,60.5,30.20,North,0,0.0,1.0,91,0.00,,---,0.00,VWS V14.01,2013-01-08 14:58:00,
2013-01-08 10:00:00,63.2,60.5,30.20,North,0,0.0,1.0,91,0.00,,---,0.00,VWS V14.01,2013-01-08 15:00:00,
2013-01-08 10:03:00,63.4,60.7,30.20,North,0,0.0,0.0,91,0.00,,---,0.00,VWS V14.01,2013-01-08 15:03:00,
2013-01-08 10:08:00,63.9,61.2,30.20,North,0,0.0,0.0,91,0.00,,---,0.00,VWS V14.01,2013-01-08 15:08:00,
2013-01-08 10:13:00,64.2,61.5,30.20,North,0,0.0,0.0,91,0.00,,---,0.00,VWS V14.01,2013-01-08 15:13:00,
2013-01-08 10:18:00,64.5,61.5,30.20,North,0,0.0,0.0,90,0.00,,---,0.00,VWS V14.01,2013-01-08 15:18:00,
2013-01-08 10:23:00,64.8,61.5,30.20,North,0,0.0,0.0,89,0.00,,---,0.00,VWS V14.01,2013-01-08 15:23:00,
2013-01-08 10:28:00,65.0,61.7,30.20,North,0,0.0,0.0,89,0.00,,---,0.00,VWS V14.01,2013-01-08 15:28:00,
2013-01-08 10:30:00,65.2,61.9,30.20,North,0,0.0,0.0,89,0.00,,---,0.00,VWS V14.01,2013-01-08 15:30:00,
2013-01-08 10:33:00,65.3,62.0,30.20,North,0,0.0,0.0,89,0.00,,---,0.00,VWS V14.01,2013-01-08 15:33:00,
2013-01-08 10:38:00,65.5,62.2,30.20,North,0,0.0,0.0,89,0.00,,---,0.00,VWS V14.01,2013-01-08 15:38:00,
2013-01-08 10:43:00,65.5,62.2,30.20,North,0,0.0,0.0,89,0.00,,---,0.00,VWS V14.01,2013-01-08 15:43:00,
2013-01-08 10:48:00,65.6,62.3,30.20,North,0,0.0,0.0,89,0.00,,---,0.00,VWS V14.01,2013-01-08 15:48:00,
2013-01-08 10:53:00,65.8,62.5,30.20,North,0,0.0,1.0,89,0.00,,---,0.00,VWS V14.01,2013-01-08 15:53:00,
2013-01-08 10:58:00,66.0,62.7,30.20,North,0,0.0,1.0,89,0.00,,---,0.00,VWS V14.01,2013-01-08 15:58:00,
2013-01-08 11:00:00,66.0,62.3,30.20,North,0,0.0,1.0,88,0.00,,---,0.00,VWS V14.01,2013-01-08 16:00:00,
2013-01-08 11:03:00,66.1,62.8,30.20,North,0,0.0,0.0,89,0.00,,---,0.00,VWS V14.01,2013-01-08 16:03:00,
2013-01-08 11:08:00,66.3,63.0,30.20,North,0,0.0,0.0,89,0.00,,---,0.00,VWS V14.01,2013-01-08 16:08:00,
2013-01-08 11:13:00,66.4,62.7,30.20,North,0,0.0,0.0,88,0.00,,---,0.00,VWS V14.01,2013-01-08 16:13:00,
2013-01-08 11:18:00,66.6,62.9,30.19,North,0,0.0,0.0,88,0.00,,---,0.00,VWS V14.01,2013-01-08 16:18:00,
2013-01-08 11:23:00,66.8,63.1,30.19,North,0,0.0,0.0,88,0.00,,---,0.00,VWS V14.01,2013-01-08 16:23:00,
2013-01-08 11:28:00,66.8,63.1,30.19,North,0,0.0,0.0,88,0.00,,---,0.00,VWS V14.01,2013-01-08 16:28:00,
2013-01-08 11:30:00,66.8,63.1,30.19,North,0,0.0,0.0,88,0.00,,---,0.00,VWS V14.01,2013-01-08 16:30:00,
2013-01-08 11:33:00,66.6,62.6,30.19,North,0,0.0,0.0,87,0.00,,---,0.00,VWS V14.01,2013-01-08 16:33:00,
2013-01-08 11:38:00,66.4,62.4,30.19,North,0,0.0,0.0,87,0.00,,---,0.00,VWS V14.01,2013-01-08 16:38:00,
2013-01-08 11:43:00,66.3,62.3,30.19,North,0,0.0,0.0,87,0.00,,---,0.00,VWS V14.01,2013-01-08 16:43:00,
2013-01-08 11:48:00,66.1,62.5,30.19,North,0,0.0,0.0,88,0.00,,---,0.00,VWS V14.01,2013-01-08 16:48:00,
2013-01-08 11:53:00,66.0,62.7,30.19,North,0,0.0,0.0,89,0.00,,---,0.00,VWS V14.01,2013-01-08 16:53:00,
2013-01-08 11:58:00,66.0,63.0,30.19,North,0,0.0,0.0,90,0.00,,---,0.00,VWS V14.01,2013-01-08 16:58:00,
2013-01-08 12:00:00,66.0,63.3,30.18,North,0,0.0,0.0,91,0.00,,---,0.00,VWS V14.01,2013-01-08 17:00:00,
2013-01-08 12:03:00,66.0,63.3,30.18,North,0,0.0,1.0,91,0.00,,---,0.00,VWS V14.01,2013-01-08 17:03:00,
2013-01-08 12:08:00,65.8,63.1,30.18,North,0,0.0,1.0,91,0.00,,---,0.00,VWS V14.01,2013-01-08 17:08:00,
2013-01-08 12:13:00,65.8,63.1,30.18,North,0,0.0,1.0,91,0.00,,---,0.00,VWS V14.01,2013-01-08 17:13:00,
2013-01-08 12:18:00,65.6,62.9,30.18,North,0,0.0,1.0,91,0.00,,---,0.00,VWS V14.01,2013-01-08 17:18:00,
2013-01-08 12:23:00,65.8,63.1,30.18,North,0,0.0,1.0,91,0.00,,---,0.00,VWS V14.01,2013-01-08 17:23:00,
2013-01-08 12:28:00,65.5,62.8,30.18,North,0,0.0,1.0,91,0.00,,---,0.00,VWS V14.01,2013-01-08 17:28:00,
2013-01-08 12:30:00,65.3,62.6,30.17,North,0,0.0,1.0,91,0.00,,---,0.00,VWS V14.01,2013-01-08 17:30:00,
2013-01-08 12:33:00,65.3,62.6,30.17,North,0,0.0,1.0,91,0.00,,---,0.00,VWS V14.01,2013-01-08 17:33:00,
2013-01-08 12:38:00,65.2,62.5,30.17,North,0,0.0,1.0,91,0.00,,---,0.00,VWS V14.01,2013-01-08 17:38:00,
2013-01-08 12:43:00,65.2,62.5,30.17,North,0,0.0,1.0,91,0.00,,---,0.00,VWS V14.01,2013-01-08 17:43:00,
2013-01-08 12:48:00,65.2,62.5,30.17,NNW,343,0.0,1.0,91,0.00,,---,0.00,VWS V14.01,2013-01-08 17:48:00,
2013-01-08 12:53:00,64.8,62.1,30.17,NNW,330,0.0,1.0,91,0.00,,---,0.00,VWS V14.01,2013-01-08 17:53:00,
2013-01-08 12:58:00,64.7,62.0,30.17,NNW,330,0.0,1.0,91,0.00,,---,0.00,VWS V14.01,2013-01-08 17:58:00,
2013-01-08 13:00:00,64.5,61.8,30.17,NNW,330,0.0,1.0,91,0.00,,---,0.00,VWS V14.01,2013-01-08 18:00:00,
2013-01-08 13:03:00,64.3,61.6,30.17,NNW,330,0.0,0.0,91,0.00,,---,0.00,VWS V14.01,2013-01-08 18:03:00,
2013-01-08 13:08:00,64.3,61.6,30.17,NNW,330,0.0,0.0,91,0.00,,---,0.00,VWS V14.01,2013-01-08 18:08:00,
2013-01-08 13:13:00,64.0,61.6,30.17,NNW,336,0.0,1.0,92,0.00,,---,0.00,VWS V14.01,2013-01-08 18:13:00,
2013-01-08 13:18:00,64.0,61.6,30.16,NW,309,0.0,2.0,92,0.00,,---,0.00,VWS V14.01,2013-01-08 18:18:00,
2013-01-08 13:23:00,63.7,61.3,30.16,NW,323,0.0,3.0,92,0.00,,---,0.00,VWS V14.01,2013-01-08 18:23:00,
2013-01-08 13:28:00,63.2,60.8,30.16,West,275,0.0,5.0,92,0.00,,---,0.00,VWS V14.01,2013-01-08 18:28:00,
2013-01-08 13:30:00,62.7,60.7,30.16,WNW,292,1.0,6.0,93,0.00,,---,0.00,VWS V14.01,2013-01-08 18:30:00,
2013-01-08 13:33:00,62.4,60.7,30.16,West,274,1.0,5.0,94,0.00,,---,0.00,VWS V14.01,2013-01-08 18:33:00,
2013-01-08 13:38:00,61.6,60.2,30.16,West,277,1.0,5.0,95,0.00,,---,0.00,VWS V14.01,2013-01-08 18:38:00,
2013-01-08 13:43:00,61.3,60.2,30.16,WSW,250,0.0,5.0,96,0.00,,---,0.00,VWS V14.01,2013-01-08 18:43:00,
2013-01-08 13:48:00,61.3,60.4,30.16,WSW,250,0.0,5.0,97,0.00,,---,0.00,VWS V14.01,2013-01-08 18:48:00,
2013-01-08 13:53:00,61.2,60.3,30.16,WSW,256,0.0,5.0,97,0.00,,---,0.00,VWS V14.01,2013-01-08 18:53:00,
2013-01-08 13:58:00,61.2,60.3,30.16,West,261,0.0,5.0,97,0.00,,---,0.00,VWS V14.01,2013-01-08 18:58:00,
2013-01-08 14:00:00,61.0,60.2,30.16,West,263,1.0,5.0,97,0.00,,---,0.00,VWS V14.01,2013-01-08 19:00:00,
2013-01-08 14:03:00,61.0,60.4,30.16,West,270,0.0,2.0,98,0.00,,---,0.00,VWS V14.01,2013-01-08 19:03:00,
2013-01-08 14:08:00,61.2,60.6,30.16,West,270,0.0,2.0,98,0.00,,---,0.00,VWS V14.01,2013-01-08 19:08:00,
2013-01-08 14:13:00,61.3,60.7,30.16,West,270,0.0,2.0,98,0.00,,---,0.00,VWS V14.01,2013-01-08 19:13:00,
2013-01-08 14:18:00,61.2,60.6,30.16,WNW,285,0.0,2.0,98,0.00,,---,0.00,VWS V14.01,2013-01-08 19:18:00,
2013-01-08 14:23:00,60.9,60.3,30.16,NNW,340,0.0,2.0,98,0.00,,---,0.00,VWS V14.01,2013-01-08 19:23:00,
2013-01-08 14:28:00,60.7,60.1,30.16,NNW,347,0.0,2.0,98,0.00,,---,0.00,VWS V14.01,2013-01-08 19:28:00,
2013-01-08 14:30:00,60.4,59.8,30.16,West,277,0.0,2.0,98,0.00,,---,0.00,VWS V14.01,2013-01-08 19:30:00,
2013-01-08 14:33:00,60.1,59.5,30.16,NW,318,2.0,2.0,98,0.00,,---,0.00,VWS V14.01,2013-01-08 19:33:00,
2013-01-08 14:38:00,59.8,59.2,30.16,NW,318,0.0,2.0,98,0.00,,---,0.00,VWS V14.01,2013-01-08 19:38:00,
2013-01-08 14:43:00,59.6,59.0,30.16,WNW,294,0.0,3.0,98,0.00,,---,0.00,VWS V14.01,2013-01-08 19:43:00,
2013-01-08 14:48:00,59.3,58.5,30.16,West,268,0.0,3.0,97,0.00,,---,0.00,VWS V14.01,2013-01-08 19:48:00,
2013-01-08 14:53:00,58.9,58.0,30.16,WNW,299,0.0,3.0,97,0.01,,---,0.01,VWS V14.01,2013-01-08 19:53:00,
2013-01-08 14:58:00,58.7,58.1,30.16,WNW,302,0.0,3.0,98,0.01,,---,0.01,VWS V14.01,2013-01-08 19:58:00,
2013-01-08 15:00:00,58.7,58.1,30.16,WNW,302,0.0,3.0,98,0.01,,---,0.01,VWS V14.01,2013-01-08 20:00:00,
2013-01-08 15:03:00,58.7,58.1,30.16,WNW,302,0.0,0.0,98,0.01,,---,0.01,VWS V14.01,2013-01-08 20:03:00,
2013-01-08 15:08:00,58.6,57.8,30.16,WNW,302,0.0,0.0,97,0.01,,---,0.01,VWS V14.01,2013-01-08 20:08:00,
2013-01-08 15:13:00,58.4,57.6,30.16,WNW,302,0.0,0.0,97,0.01,,---,0.01,VWS V14.01,2013-01-08 20:13:00,
2013-01-08 15:18:00,58.4,57.8,30.16,North,354,0.0,3.0,98,0.01,,---,0.01,VWS V14.01,2013-01-08 20:18:00,
2013-01-08 15:23:00,58.6,57.8,30.16,NNW,342,0.0,3.0,97,0.01,,---,0.01,VWS V14.01,2013-01-08 20:23:00,
2013-01-08 15:28:00,58.7,57.8,30.16,NNW,343,0.0,3.0,97,0.01,,---,0.01,VWS V14.01,2013-01-08 20:28:00,
2013-01-08 15:30:00,58.9,58.0,30.15,NNW,343,0.0,3.0,97,0.01,,---,0.01,VWS V14.01,2013-01-08 20:30:00,
2013-01-08 15:33:00,58.7,57.8,30.15,NNW,343,0.0,0.0,97,0.01,,---,0.01,VWS V14.01,2013-01-08 20:33:00,
2013-01-08 15:38:00,58.6,57.8,30.15,NNW,343,0.0,0.0,97,0.01,,---,0.01,VWS V14.01,2013-01-08 20:38:00,
2013-01-08 15:43:00,58.7,57.8,30.15,NNW,343,0.0,0.0,97,0.01,,---,0.01,VWS V14.01,2013-01-08 20:43:00,
2013-01-08 15:48:00,58.7,57.8,30.15,NNW,343,0.0,0.0,97,0.01,,---,0.01,VWS V14.01,2013-01-08 20:48:00,
2013-01-08 15:53:00,58.7,57.8,30.15,ENE,66,0.0,0.0,97,0.01,,---,0.01,VWS V14.01,2013-01-08 20:53:00,
2013-01-08 15:58:00,58.9,58.0,30.15,ENE,66,0.0,0.0,97,0.01,,---,0.01,VWS V14.01,2013-01-08 20:58:00,
2013-01-08 16:00:00,58.9,58.0,30.15,ENE,64,0.0,1.0,97,0.01,,---,0.01,VWS V14.01,2013-01-08 21:00:00,
2013-01-08 16:03:00,58.7,57.8,30.15,NE,55,0.0,0.0,97,0.00,,---,0.01,VWS V14.01,2013-01-08 21:03:00,
2013-01-08 16:08:00,58.7,57.8,30.15,NE,51,0.0,2.0,97,0.00,,---,0.01,VWS V14.01,2013-01-08 21:08:00,
2013-01-08 16:13:00,58.7,57.8,30.15,NE,51,0.0,2.0,97,0.00,,---,0.01,VWS V14.01,2013-01-08 21:13:00,
2013-01-08 16:18:00,58.7,57.8,30.15,NE,51,0.0,2.0,97,0.00,,---,0.01,VWS V14.01,2013-01-08 21:18:00,
2013-01-08 16:23:00,58.6,57.8,30.15,NNE,28,0.0,2.0,97,0.00,,---,0.01,VWS V14.01,2013-01-08 21:23:00,
2013-01-08 16:28:00,58.6,57.8,30.15,NNE,27,0.0,2.0,97,0.00,,---,0.01,VWS V14.01,2013-01-08 21:28:00,
2013-01-08 16:30:00,58.6,57.8,30.15,NNE,27,0.0,2.0,97,0.00,,---,0.01,VWS V14.01,2013-01-08 21:30:00,
2013-01-08 16:33:00,58.6,57.8,30.15,NNE,27,0.0,0.0,97,0.00,,---,0.01,VWS V14.01,2013-01-08 21:33:00,
2013-01-08 16:38:00,58.6,57.8,30.15,NNE,27,0.0,0.0,97,0.00,,---,0.01,VWS V14.01,2013-01-08 21:38:00,
2013-01-08 16:43:00,58.6,57.8,30.15,NNE,27,0.0,1.0,97,0.00,,---,0.01,VWS V14.01,2013-01-08 21:43:00,
2013-01-08 16:48:00,58.6,57.8,30.16,NNE,27,0.0,1.0,97,0.00,,---,0.01,VWS V14.01,2013-01-08 21:48:00,
2013-01-08 16:53:00,58.6,57.8,30.16,NNE,27,0.0,1.0,97,0.00,,---,0.01,VWS V14.01,2013-01-08 21:53:00,
2013-01-08 16:58:00,58.6,57.8,30.16,West,277,1.0,3.0,97,0.00,,---,0.01,VWS V14.01,2013-01-08 21:58:00,
2013-01-08 17:00:00,58.6,57.8,30.15,West,277,0.0,3.0,97,0.00,,---,0.01,VWS V14.01,2013-01-08 22:00:00,
2013-01-08 17:03:00,58.6,57.8,30.15,West,277,0.0,0.0,97,0.00,,---,0.01,VWS V14.01,2013-01-08 22:03:00,
2013-01-08 17:08:00,58.6,58.0,30.15,West,277,0.0,0.0,98,0.01,,---,0.02,VWS V14.01,2013-01-08 22:08:00,
2013-01-08 17:13:00,58.4,57.8,30.15,West,277,0.0,0.0,98,0.01,,---,0.02,VWS V14.01,2013-01-08 22:13:00,
2013-01-08 17:18:00,58.4,57.8,30.16,WNW,291,0.0,2.0,98,0.01,,---,0.02,VWS V14.01,2013-01-08 22:18:00,
2013-01-08 17:23:00,58.4,57.8,30.16,WNW,291,0.0,2.0,98,0.01,,---,0.02,VWS V14.01,2013-01-08 22:23:00,
2013-01-08 17:28:00,58.4,57.8,30.16,WNW,291,0.0,2.0,98,0.01,,---,0.02,VWS V14.01,2013-01-08 22:28:00,
2013-01-08 17:30:00,58.4,57.8,30.16,WNW,291,0.0,2.0,98,0.01,,---,0.02,VWS V14.01,2013-01-08 22:30:00,
2013-01-08 17:33:00,58.4,57.8,30.16,WNW,291,0.0,0.0,98,0.01,,---,0.02,VWS V14.01,2013-01-08 22:33:00,
2013-01-08 17:38:00,58.4,57.8,30.16,WNW,291,0.0,0.0,98,0.01,,---,0.02,VWS V14.01,2013-01-08 22:38:00,
2013-01-08 17:43:00,58.3,58.0,30.16,WNW,291,0.0,0.0,99,0.01,,---,0.02,VWS V14.01,2013-01-08 22:43:00,
2013-01-08 17:48:00,58.3,58.0,30.16,WNW,291,0.0,0.0,99,0.01,,---,0.02,VWS V14.01,2013-01-08 22:48:00,
2013-01-08 17:53:00,58.3,58.0,30.16,WNW,291,0.0,0.0,99,0.01,,---,0.02,VWS V14.01,2013-01-08 22:53:00,
2013-01-08 17:58:00,58.3,58.0,30.16,WNW,291,0.0,0.0,99,0.01,,---,0.02,VWS V14.01,2013-01-08 22:58:00,
2013-01-08 18:00:00,58.3,58.0,30.16,WNW,291,0.0,0.0,99,0.01,,---,0.02,VWS V14.01,2013-01-08 23:00:00,
2013-01-08 18:03:00,58.3,58.0,30.16,NW,316,0.0,0.0,99,0.01,,---,0.02,VWS V14.01,2013-01-08 23:03:00,
2013-01-08 18:08:00,58.1,57.8,30.16,NNW,330,0.0,1.0,99,0.01,,---,0.02,VWS V14.01,2013-01-08 23:08:00,
2013-01-08 18:13:00,58.1,57.8,30.16,NNW,330,0.0,1.0,99,0.01,,---,0.02,VWS V14.01,2013-01-08 23:13:00,
2013-01-08 18:18:00,58.1,57.8,30.16,NNW,330,0.0,1.0,99,0.02,,---,0.03,VWS V14.01,2013-01-08 23:18:00,
2013-01-08 18:23:00,58.1,57.8,30.16,NNW,330,0.0,1.0,99,0.03,,---,0.04,VWS V14.01,2013-01-08 23:23:00,
2013-01-08 18:28:00,58.1,57.8,30.16,NNW,330,0.0,1.0,99,0.03,,---,0.04,VWS V14.01,2013-01-08 23:28:00,
2013-01-08 18:30:00,58.1,57.8,30.16,NNW,330,0.0,1.0,99,0.03,,---,0.04,VWS V14.01,2013-01-08 23:30:00,
2013-01-08 18:33:00,58.1,58.1,30.16,NNW,330,0.0,0.0,100,0.02,,---,0.04,VWS V14.01,2013-01-08 23:33:00,
2013-01-08 18:38:00,58.1,58.1,30.16,NNW,330,0.0,1.0,100,0.02,,---,0.04,VWS V14.01,2013-01-08 23:38:00,
2013-01-08 18:43:00,58.1,58.1,30.16,NNW,330,0.0,1.0,100,0.02,,---,0.04,VWS V14.01,2013-01-08 23:43:00,
2013-01-08 18:48:00,58.1,58.1,30.16,NNW,330,0.0,1.0,100,0.02,,---,0.04,VWS V14.01,2013-01-08 23:48:00,
2013-01-08 18:53:00,58.1,58.1,30.16,NNW,330,0.0,1.0,100,0.02,,---,0.04,VWS V14.01,2013-01-08 23:53:00,
2013-01-08 18:58:00,58.1,58.1,30.16,NNW,330,0.0,1.0,100,0.02,,---,0.04,VWS V14.01,2013-01-08 23:58:00,
2013-01-08 19:00:00,58.1,58.1,30.17,NNW,330,0.0,1.0,100,0.02,,---,0.04,VWS V14.01,2013-01-09 00:00:00,
2013-01-08 19:03:00,58.1,58.1,30.17,NNW,330,0.0,0.0,100,0.02,,---,0.04,VWS V14.01,2013-01-09 00:03:00,
2013-01-08 19:08:00,58.3,58.3,30.17,NNW,330,0.0,1.0,100,0.02,,---,0.04,VWS V14.01,2013-01-09 00:08:00,
2013-01-08 19:13:00,58.3,58.3,30.17,NNW,330,0.0,1.0,100,0.02,,---,0.04,VWS V14.01,2013-01-09 00:13:00,
2013-01-08 19:18:00,58.3,58.3,30.17,NNW,330,0.0,1.0,100,0.02,,---,0.04,VWS V14.01,2013-01-09 00:18:00,
2013-01-08 19:23:00,58.3,58.3,30.17,NNW,330,0.0,1.0,100,0.02,,---,0.04,VWS V14.01,2013-01-09 00:23:00,
2013-01-08 19:28:00,58.4,58.4,30.17,NNW,330,0.0,1.0,100,0.02,,---,0.04,VWS V14.01,2013-01-09 00:28:00,
2013-01-08 19:30:00,58.4,58.4,30.16,NNW,330,0.0,1.0,100,0.02,,---,0.04,VWS V14.01,2013-01-09 00:30:00,
2013-01-08 19:33:00,58.4,58.4,30.16,NNW,330,0.0,0.0,100,0.00,,---,0.04,VWS V14.01,2013-01-09 00:33:00,
2013-01-08 19:38:00,58.6,58.6,30.16,NNW,330,0.0,0.0,100,0.00,,---,0.04,VWS V14.01,2013-01-09 00:38:00,
2013-01-08 19:43:00,58.6,58.6,30.16,NNW,330,0.0,0.0,100,0.00,,---,0.04,VWS V14.01,2013-01-09 00:43:00,
2013-01-08 19:48:00,58.6,58.6,30.16,NNW,330,0.0,0.0,100,0.00,,---,0.04,VWS V14.01,2013-01-09 00:48:00,
2013-01-08 19:53:00,58.6,58.6,30.16,NNW,330,0.0,0.0,100,0.00,,---,0.04,VWS V14.01,2013-01-09 00:53:00,
2013-01-08 19:58:00,58.6,58.6,30.16,NW,326,0.0,0.0,100,0.00,,---,0.04,VWS V14.01,2013-01-09 00:58:00,
2013-01-08 20:00:00,58.6,58.6,30.17,NW,326,0.0,0.0,100,0.00,,---,0.04,VWS V14.01,2013-01-09 01:00:00,
2013-01-08 20:03:00,58.6,58.6,30.17,NW,326,0.0,1.0,100,0.00,,---,0.04,VWS V14.01,2013-01-09 01:03:00,
2013-01-08 20:08:00,58.7,58.7,30.17,NW,326,0.0,1.0,100,0.00,,---,0.04,VWS V14.01,2013-01-09 01:08:00,
2013-01-08 20:13:00,58.7,58.7,30.17,NW,326,0.0,1.0,100,0.00,,---,0.04,VWS V14.01,2013-01-09 01:13:00,
2013-01-08 20:18:00,58.7,58.7,30.17,NW,326,0.0,1.0,100,0.00,,---,0.04,VWS V14.01,2013-01-09 01:18:00,
2013-01-08 20:23:00,58.7,58.7,30.17,NW,326,0.0,1.0,100,0.00,,---,0.04,VWS V14.01,2013-01-09 01:23:00,
2013-01-08 20:28:00,58.7,58.7,30.17,NW,326,0.0,1.0,100,0.00,,---,0.04,VWS V14.01,2013-01-09 01:28:00,
2013-01-08 20:30:00,58.7,58.7,30.17,NW,326,0.0,1.0,100,0.00,,---,0.04,VWS V14.01,2013-01-09 01:30:00,
2013-01-08 20:33:00,58.7,58.7,30.17,NW,326,0.0,0.0,100,0.00,,---,0.04,VWS V14.01,2013-01-09 01:33:00,
2013-01-08 20:38:00,58.7,58.7,30.17,NW,326,0.0,0.0,100,0.00,,---,0.04,VWS V14.01,2013-01-09 01:38:00,
2013-01-08 20:43:00,58.7,58.7,30.17,NW,326,0.0,0.0,100,0.00,,---,0.04,VWS V14.01,2013-01-09 01:43:00,
2013-01-08 20:48:00,58.7,58.7,30.17,NW,326,0.0,1.0,100,0.00,,---,0.04,VWS V14.01,2013-01-09 01:48:00,
2013-01-08 20:53:00,58.7,58.7,30.17,NW,326,0.0,1.0,100,0.00,,---,0.04,VWS V14.01,2013-01-09 01:53:00,
2013-01-08 20:58:00,58.7,58.7,30.17,NW,326,0.0,1.0,100,0.00,,---,0.04,VWS V14.01,2013-01-09 01:58:00,
2013-01-08 21:00:00,58.7,58.7,30.17,NW,326,0.0,1.0,100,0.00,,---,0.04,VWS V14.01,2013-01-09 02:00:00,
2013-01-08 21:03:00,58.6,58.6,30.17,NW,326,0.0,0.0,100,0.00,,---,0.04,VWS V14.01,2013-01-09 02:03:00,
2013-01-08 21:08:00,58.6,58.6,30.17,NW,326,0.0,0.0,100,0.00,,---,0.04,VWS V14.01,2013-01-09 02:08:00,
2013-01-08 21:13:00,58.6,58.6,30.17,NW,326,0.0,0.0,100,0.00,,---,0.04,VWS V14.01,2013-01-09 02:13:00,
2013-01-08 21:18:00,58.7,58.7,30.17,NW,326,0.0,0.0,100,0.00,,---,0.04,VWS V14.01,2013-01-09 02:18:00,
2013-01-08 21:23:00,58.7,58.7,30.17,NW,326,0.0,1.0,100,0.00,,---,0.04,VWS V14.01,2013-01-09 02:23:00,
2013-01-08 21:28:00,58.9,58.9,30.17,NW,326,0.0,1.0,100,0.00,,---,0.04,VWS V14.01,2013-01-09 02:28:00,
2013-01-08 21:30:00,58.9,58.9,30.17,NW,326,0.0,1.0,100,0.01,,---,0.05,VWS V14.01,2013-01-09 02:30:00,
2013-01-08 21:33:00,58.9,58.9,30.17,NW,326,0.0,0.0,100,0.01,,---,0.05,VWS V14.01,2013-01-09 02:33:00,
2013-01-08 21:38:00,58.9,58.9,30.17,NW,326,0.0,0.0,100,0.01,,---,0.05,VWS V14.01,2013-01-09 02:38:00,
2013-01-08 21:43:00,59.0,59.0,30.17,NW,326,0.0,0.0,100,0.01,,---,0.05,VWS V14.01,2013-01-09 02:43:00,
2013-01-08 21:48:00,59.0,59.0,30.18,NW,326,0.0,0.0,100,0.01,,---,0.05,VWS V14.01,2013-01-09 02:48:00,
2013-01-08 21:53:00,59.0,59.0,30.18,NW,326,0.0,0.0,100,0.01,,---,0.05,VWS V14.01,2013-01-09 02:53:00,
2013-01-08 21:58:00,59.2,59.2,30.18,NW,326,0.0,0.0,100,0.01,,---,0.05,VWS V14.01,2013-01-09 02:58:00,
2013-01-08 22:00:00,59.2,59.2,30.18,NW,326,0.0,0.0,100,0.01,,---,0.05,VWS V14.01,2013-01-09 03:00:00,
2013-01-08 22:03:00,59.2,59.2,30.18,NW,326,0.0,0.0,100,0.01,,---,0.05,VWS V14.01,2013-01-09 03:03:00,
2013-01-08 22:08:00,59.3,59.3,30.18,NW,326,0.0,0.0,100,0.01,,---,0.05,VWS V14.01,2013-01-09 03:08:00,
2013-01-08 22:13:00,59.3,59.3,30.18,NW,326,0.0,0.0,100,0.01,,---,0.05,VWS V14.01,2013-01-09 03:13:00,
2013-01-08 22:18:00,59.5,59.5,30.18,NW,326,0.0,0.0,100,0.01,,---,0.05,VWS V14.01,2013-01-09 03:18:00,
2013-01-08 22:23:00,59.5,59.5,30.18,NW,326,0.0,0.0,100,0.01,,---,0.05,VWS V14.01,2013-01-09 03:23:00,
2013-01-08 22:28:00,59.5,59.5,30.18,NW,326,0.0,0.0,100,0.01,,---,0.05,VWS V14.01,2013-01-09 03:28:00,
2013-01-08 22:30:00,59.6,59.6,30.18,NW,326,0.0,0.0,100,0.01,,---,0.05,VWS V14.01,2013-01-09 03:30:00,
2013-01-08 22:33:00,59.6,59.6,30.18,NW,326,0.0,0.0,100,0.00,,---,0.05,VWS V14.01,2013-01-09 03:33:00,
2013-01-08 22:38:00,59.8,59.8,30.18,NW,326,0.0,0.0,100,0.00,,---,0.05,VWS V14.01,2013-01-09 03:38:00,
2013-01-08 22:43:00,59.9,59.9,30.18,NW,326,0.0,0.0,100,0.00,,---,0.05,VWS V14.01,2013-01-09 03:43:00,
2013-01-08 22:48:00,60.1,60.1,30.19,NW,326,0.0,0.0,100,0.00,,---,0.05,VWS V14.01,2013-01-09 03:48:00,
2013-01-08 22:53:00,60.2,60.2,30.19,NW,326,0.0,0.0,100,0.00,,---,0.05,VWS V14.01,2013-01-09 03:53:00,
2013-01-08 22:58:00,60.2,60.2,30.19,NW,326,0.0,0.0,100,0.00,,---,0.05,VWS V14.01,2013-01-09 03:58:00,
2013-01-08 23:00:00,60.2,60.2,30.19,NW,326,0.0,0.0,100,0.00,,---,0.05,VWS V14.01,2013-01-09 04:00:00,
2013-01-08 23:03:00,60.2,60.2,30.19,NW,326,0.0,0.0,100,0.00,,---,0.05,VWS V14.01,2013-01-09 04:03:00,
2013-01-08 23:08:00,60.1,60.1,30.19,NW,326,0.0,0.0,100,0.00,,---,0.05,VWS V14.01,2013-01-09 04:08:00,
2013-01-08 23:13:00,60.1,60.1,30.19,NW,326,0.0,0.0,100,0.00,,---,0.05,VWS V14.01,2013-01-09 04:13:00,
2013-01-08 23:18:00,59.9,59.9,30.19,NW,326,0.0,0.0,100,0.00,,---,0.05,VWS V14.01,2013-01-09 04:18:00,
2013-01-08 23:23:00,59.9,59.9,30.19,NW,326,0.0,0.0,100,0.00,,---,0.05,VWS V14.01,2013-01-09 04:23:00,
2013-01-08 23:28:00,60.1,60.1,30.19,NW,326,0.0,0.0,100,0.00,,---,0.05,VWS V14.01,2013-01-09 04:28:00,
2013-01-08 23:30:00,60.1,60.1,30.18,NW,326,0.0,0.0,100,0.00,,---,0.05,VWS V14.01,2013-01-09 04:30:00,
2013-01-08 23:33:00,60.1,60.1,30.18,NW,326,0.0,0.0,100,0.00,,---,0.05,VWS V14.01,2013-01-09 04:33:00,
2013-01-08 23:38:00,60.2,60.2,30.18,NW,326,0.0,0.0,100,0.00,,---,0.05,VWS V14.01,2013-01-09 04:38:00,
2013-01-08 23:43:00,60.4,60.4,30.18,NW,326,0.0,0.0,100,0.00,,---,0.05,VWS V14.01,2013-01-09 04:43:00,
2013-01-08 23:48:00,60.4,60.4,30.18,NW,326,0.0,0.0,100,0.00,,---,0.05,VWS V14.01,2013-01-09 04:48:00,
2013-01-08 23:53:00,60.4,60.4,30.18,NW,326,0.0,0.0,100,0.00,,---,0.05,VWS V14.01,2013-01-09 04:53:00,
2013-01-08 23:58:00,60.5,60.5,30.18,NW,326,0.0,0.0,100,0.00,,---,0.05,VWS V14.01,2013-01-09 04:58:00,